WX4MMM Weather Reports


Display with metric or nautical units.
time (UTC)temp
F
wind
direction
speed
MPH
gust
MPH
rain 1hr
in
rain 24hr
in
rain mn
in
humidity
%
barometer
mb
20260902235004 87 319 0.0 1.0 0.00 0.00 0.00 76 1015.9
20260902234003 88 328 0.0 1.0 0.00 0.00 0.00 74 1015.8
20260902233004 89 233 0.0 1.0 0.00 0.00 0.00 71 1015.9
20260902232003 89 257 0.0 1.0 0.00 0.00 0.00 68 1016.1
20260902231505 90 311 0.0 1.0 0.00 0.00 0.00 67 1016.1
20260902231004 90 169 0.0 1.0 0.00 0.00 0.00 66 1016.0
20260902230504 91 302 1.0 1.0 0.00 0.00 0.00 65 1016.0
20260902230004 91 284 0.0 1.0 0.00 0.00 0.00 64 1015.9
20260902225004 92 196 0.0 1.0 0.00 0.00 0.00 62 1015.8
20260902224505 92 300 0.0 1.0 0.00 0.00 0.00 62 1015.7
20260902224004 92 324 0.0 1.0 0.00 0.00 0.00 59 1015.7
20260902223503 93 217 0.0 1.0 0.00 0.00 0.00 58 1015.8
20260902223005 93 280 0.0 1.0 0.00 0.00 0.00 58 1015.8
20260902221504 94 282 0.0 1.0 0.00 0.00 0.00 54 1015.7
20260902221004 94 352 0.0 2.0 0.00 0.00 0.00 55 1015.7
20260902220504 94 35 0.0 1.0 0.00 0.00 0.00 52 1015.7
20260902215503 95 248 1.0 1.0 0.00 0.00 0.00 50 1015.7
20260902215004 95 346 1.0 1.0 0.00 0.00 0.00 53 1015.7
20260902214504 95 348 1.0 2.0 0.00 0.00 0.00 52 1015.7
20260902213004 95 352 1.0 2.0 0.00 0.00 0.00 50 1015.7
20260902212004 96 336 0.0 2.0 0.00 0.00 0.00 49 1015.7
20260902211004 96 0 1.0 3.0 0.00 0.00 0.00 50 1015.8
20260902210503 96 308 1.0 3.0 0.00 0.00 0.00 50 1015.8
20260902210005 96 276 1.0 2.0 0.00 0.00 0.00 50 1015.7
20260902205504 96 319 0.0 1.0 0.00 0.00 0.00 51 1015.6
20260902205004 96 328 0.0 1.0 0.00 0.00 0.00 49 1015.7
20260902204504 96 181 0.0 2.0 0.00 0.00 0.00 48 1015.7
20260902204004 96 238 0.0 2.0 0.00 0.00 0.00 49 1015.7
20260902203504 96 283 0.0 2.0 0.00 0.00 0.00 47 1015.8
20260902203003 96 296 0.0 1.0 0.00 0.00 0.00 49 1015.9
20260902202504 97 334 1.0 2.0 0.00 0.00 0.00 49 1015.9
20260902202004 97 339 0.0 1.0 0.00 0.00 0.00 49 1015.9
20260902201504 97 328 1.0 1.0 0.00 0.00 0.00 48 1015.9
20260902201004 98 37 0.0 2.0 0.00 0.00 0.00 50 1016.0
20260902200504 99 39 1.0 2.0 0.00 0.00 0.00 47 1016.0
20260902200003 99 252 1.0 2.0 0.00 0.00 0.00 44 1016.0
20260902195504 98 324 1.0 2.0 0.00 0.00 0.00 44 1016.1
20260902195003 98 46 0.0 2.0 0.00 0.00 0.00 48 1016.1
20260902194003 97 232 0.0 2.0 0.00 0.00 0.00 47 1016.1
20260902193504 97 176 1.0 3.0 0.00 0.00 0.00 46 1016.2
20260902193004 98 196 1.0 3.0 0.00 0.00 0.00 46 1016.3
20260902192504 98 144 0.0 2.0 0.00 0.00 0.00 44 1016.3
20260902192004 98 356 0.0 2.0 0.00 0.00 0.00 46 1016.4
20260902191504 98 301 0.0 2.0 0.00 0.00 0.00 44 1016.4
20260902191003 98 319 1.0 2.0 0.00 0.00 0.00 45 1016.5
20260902190004 98 10 2.0 2.0 0.00 0.00 0.00 46 1016.5
20260902185505 97 18 0.0 2.0 0.00 0.00 0.00 46 1016.5
20260902184504 98 199 1.0 3.0 0.00 0.00 0.00 46 1016.6
20260902184004 98 302 1.0 2.0 0.00 0.00 0.00 45 1016.7
20260902182504 97 189 0.0 3.0 0.00 0.00 0.00 45 1016.8
20260902182005 96 179 1.0 3.0 0.00 0.00 0.00 47 1016.8
20260902181503 97 184 2.0 3.0 0.00 0.00 0.00 46 1016.9
20260902181005 97 44 1.0 2.0 0.00 0.00 0.00 50 1016.9
20260902180504 97 285 1.0 3.0 0.00 0.00 0.00 49 1016.9
20260902180006 97 194 1.0 3.0 0.00 0.00 0.00 46 1016.9
20260902175503 97 338 1.0 2.0 0.00 0.00 0.00 47 1016.9
20260902175004 97 354 1.0 2.0 0.00 0.00 0.00 45 1017.0
20260902174504 97 177 1.0 2.0 0.00 0.00 0.00 46 1017.0
20260902174004 96 2 1.0 2.0 0.00 0.00 0.00 46 1017.0
20260902173505 96 248 1.0 3.0 0.00 0.00 0.00 46 1017.0
20260902173004 95 323 1.0 3.0 0.00 0.00 0.00 48 1017.2
20260902172504 95 317 0.0 3.0 0.00 0.00 0.00 46 1017.2
20260902172004 95 177 2.0 5.0 0.00 0.00 0.00 48 1017.2
20260902171507 96 150 0.0 1.0 0.00 0.00 0.00 50 1017.2
20260902171005 95 332 1.0 2.0 0.00 0.00 0.00 50 1017.3
20260902170004 95 183 1.0 3.0 0.00 0.00 0.00 51 1017.3
20260902165504 95 85 1.0 2.0 0.00 0.00 0.00 50 1017.4
20260902165004 95 261 1.0 3.0 0.00 0.00 0.00 50 1017.5
20260902164004 94 223 0.0 2.0 0.00 0.00 0.00 52 1017.5
20260902163508 94 159 0.0 3.0 0.00 0.00 0.00 52 1017.5
20260902163004 94 272 1.0 2.0 0.00 0.00 0.00 50 1017.6
20260902162004 94 304 1.0 2.0 0.00 0.00 0.00 51 1017.7
20260902161504 94 60 1.0 2.0 0.00 0.00 0.00 50 1017.8
20260902160506 93 316 0.0 2.0 0.00 0.00 0.00 56 1017.8
20260902160005 93 35 1.0 3.0 0.00 0.00 0.00 56 1017.8
20260902155504 93 337 2.0 2.0 0.00 0.00 0.00 56 1017.9
20260902155004 93 34 1.0 3.0 0.00 0.00 0.00 57 1017.8
20260902154005 92 355 0.0 2.0 0.00 0.00 0.00 59 1018.0
20260902153503 91 269 1.0 2.0 0.00 0.00 0.00 61 1017.9
20260902153003 91 310 1.0 2.0 0.00 0.00 0.00 60 1017.9
20260902152503 91 226 1.0 2.0 0.00 0.00 0.00 61 1017.9
20260902151504 91 327 1.0 2.0 0.00 0.00 0.00 62 1018.0
20260902151004 90 358 0.0 2.0 0.00 0.00 0.00 63 1018.0
20260902150504 90 301 1.0 2.0 0.00 0.00 0.00 62 1018.0
20260902150004 90 304 1.0 1.0 0.00 0.00 0.00 62 1018.0
20260902145004 89 32 0.0 3.0 0.00 0.00 0.00 66 1017.9
20260902144503 88 309 1.0 2.0 0.00 0.00 0.00 66 1017.9
20260902144003 88 179 0.0 2.0 0.00 0.00 0.00 64 1017.8
20260902143504 88 115 0.0 2.0 0.00 0.00 0.00 68 1017.8
20260902143004 88 67 0.0 2.0 0.00 0.00 0.00 67 1017.7
20260902142504 87 20 0.0 2.0 0.00 0.00 0.00 66 1017.8
20260902142004 86 248 0.0 2.0 0.00 0.00 0.00 67 1017.8
20260902141504 86 197 1.0 3.0 0.00 0.00 0.00 69 1017.8
20260902141003 85 21 1.0 3.0 0.00 0.00 0.00 70 1017.8
20260902135504 83 348 0.0 1.0 0.00 0.00 0.00 78 1017.8
20260902135004 82 151 0.0 2.0 0.00 0.00 0.00 79 1017.9
20260902134504 82 20 1.0 2.0 0.00 0.00 0.00 78 1018.0
20260902134003 82 25 1.0 1.0 0.00 0.00 0.00 80 1018.0
20260902133004 81 15 0.0 1.0 0.00 0.00 0.00 82 1018.0
20260902132505 81 52 0.0 1.0 0.00 0.00 0.00 81 1018.0
20260902132004 80 124 1.0 1.0 0.00 0.00 0.00 82 1018.0
20260902131503 80 5 1.0 2.0 0.00 0.00 0.00 84 1018.0
20260902131005 79 187 1.0 1.0 0.00 0.00 0.00 85 1018.0
20260902130503 78 24 1.0 1.0 0.00 0.00 0.00 88 1018.0
20260902130004 78 351 0.0 1.0 0.00 0.00 0.00 90 1018.0
20260902124504 76 344 0.0 1.0 0.00 0.00 0.00 93 1018.1
20260902124003 76 355 0.0 0.0 0.00 0.00 0.00 96 1018.1
20260902123503 75 342 0.0 1.0 0.00 0.00 0.00 97 1018.0
20260902123004 75 220 0.0 1.0 0.00 0.00 0.00 98 1018.0
20260902122503 75 289 0.0 1.0 0.00 0.00 0.00 98 1018.0
20260902122005 74 4 1.0 1.0 0.00 0.00 0.00 98 1018.0
20260902121503 74 302 1.0 1.0 0.00 0.00 0.00 98 1018.0
20260902121003 74 193 0.0 0.0 0.00 0.00 0.00 98 1018.0
20260902120503 74 176 0.0 1.0 0.00 0.00 0.00 98 1017.9
20260902120004 73 239 0.0 1.0 0.00 0.00 0.00 98 1017.8
20260902115004 73 101 0.0 0.0 0.00 0.00 0.00 98 1017.9
20260902114003 73 256 0.0 1.0 0.00 0.00 0.00 98 1017.9
20260902113503 73 213 0.0 1.0 0.00 0.00 0.00 98 1017.9
20260902113004 73 214 0.0 1.0 0.00 0.00 0.00 98 1017.9
20260902112504 73 180 0.0 1.0 0.00 0.00 0.00 98 1017.8
20260902112004 73 152 0.0 0.0 0.00 0.00 0.00 98 1017.8
20260902111503 73 152 0.0 0.0 0.00 0.00 0.00 98 1017.8
20260902111004 73 152 0.0 0.0 0.00 0.00 0.00 98 1017.7
20260902110503 73 152 0.0 1.0 0.00 0.00 0.00 98 1017.6
20260902110007 73 243 0.0 1.0 0.00 0.00 0.00 98 1017.6
20260902105503 73 210 0.0 0.0 0.00 0.00 0.00 98 1017.6
20260902105003 73 210 0.0 0.0 0.00 0.00 0.00 98 1017.6
20260902104503 73 210 0.0 0.0 0.00 0.00 0.00 98 1017.6
20260902104004 73 210 0.0 1.0 0.00 0.00 0.00 98 1017.6
20260902103503 73 149 0.0 1.0 0.00 0.00 0.00 98 1017.6
20260902103004 73 104 0.0 0.0 0.00 0.00 0.00 98 1017.6
20260902102004 73 154 0.0 1.0 0.00 0.00 0.00 98 1017.5
20260902101504 73 307 0.0 0.0 0.00 0.00 0.00 98 1017.5
20260902101004 73 307 0.0 0.0 0.00 0.00 0.00 98 1017.5
20260902100004 73 187 0.0 1.0 0.00 0.00 0.00 98 1017.4
20260902094505 73 164 0.0 0.0 0.00 0.00 0.00 97 1017.3
20260902093003 73 0 0.0 1.0 0.00 0.00 0.00 97 1017.1
20260902092503 73 2 1.0 2.0 0.00 0.00 0.00 97 1017.1
20260902091503 73 183 0.0 1.0 0.00 0.00 0.00 97 1017.2
20260902091004 73 262 0.0 0.0 0.00 0.00 0.00 97 1017.1
20260902090004 73 263 0.0 0.0 0.00 0.00 0.00 97 1017.0
20260902085503 73 281 0.0 0.0 0.00 0.00 0.00 97 1017.0
20260902085004 73 324 0.0 0.0 0.00 0.00 0.00 97 1016.9
20260902084503 73 324 0.0 1.0 0.00 0.00 0.00 97 1016.9
20260902084004 73 177 0.0 1.0 0.00 0.00 0.00 97 1016.9
20260902083504 73 204 0.0 1.0 0.00 0.00 0.00 97 1016.9
20260902083004 73 198 0.0 0.0 0.00 0.00 0.00 96 1016.9
20260902082504 73 198 0.0 1.0 0.00 0.00 0.00 96 1016.9
20260902081004 74 333 0.0 1.0 0.00 0.00 0.00 96 1016.8
20260902080504 74 308 0.0 1.0 0.00 0.00 0.00 96 1016.8
20260902080004 74 62 0.0 1.0 0.00 0.00 0.00 96 1016.9
20260902075505 74 175 0.0 1.0 0.00 0.00 0.00 96 1016.9
20260902075004 74 359 0.0 1.0 0.00 0.00 0.00 96 1016.9
20260902074003 74 165 1.0 1.0 0.00 0.00 0.00 95 1017.0
20260902073504 74 165 1.0 1.0 0.00 0.00 0.00 95 1017.0
20260902073004 74 351 0.0 0.0 0.00 0.00 0.00 95 1017.0
20260902072503 74 351 0.0 1.0 0.00 0.00 0.00 95 1017.0
20260902072003 74 303 0.0 0.0 0.00 0.00 0.00 95 1017.1
20260902071503 74 303 0.0 0.0 0.00 0.00 0.00 95 1017.1
20260902071003 74 268 0.0 0.0 0.00 0.00 0.00 95 1017.0
20260902070504 74 268 0.0 1.0 0.00 0.00 0.00 95 1017.1
20260902070006 74 349 1.0 2.0 0.00 0.00 0.00 95 1017.2
20260902065004 74 204 1.0 2.0 0.00 0.00 0.00 94 1017.1
20260902064503 74 182 0.0 1.0 0.00 0.00 0.00 94 1017.0
20260902064004 75 323 1.0 1.0 0.00 0.00 0.00 94 1017.1
20260902063504 75 277 0.0 0.0 0.00 0.00 0.00 94 1017.1
20260902063004 75 277 0.0 0.0 0.00 0.00 0.00 93 1017.2
20260902062504 75 277 0.0 0.0 0.00 0.00 0.00 93 1017.2
20260902062004 75 188 0.0 0.0 0.00 0.00 0.00 93 1017.3
20260902060505 75 169 0.0 1.0 0.00 0.00 0.00 93 1017.2
20260902060003 75 178 0.0 0.0 0.00 0.00 0.00 93 1017.2
20260902055503 75 178 0.0 0.0 0.00 0.00 0.00 92 1017.1
20260902055004 75 221 0.0 1.0 0.00 0.00 0.00 93 1017.1
20260902054503 75 188 0.0 1.0 0.00 0.00 0.00 93 1017.1
20260902054004 75 132 0.0 1.0 0.00 0.00 0.00 92 1017.1
20260902053503 75 49 0.0 0.0 0.00 0.00 0.00 92 1017.0
20260902053003 75 272 0.0 0.0 0.00 0.00 0.00 92 1017.0
20260902052504 75 272 0.0 0.0 0.00 0.00 0.00 91 1017.0
20260902052004 75 272 0.0 0.0 0.00 0.00 0.00 91 1016.9
20260902051504 75 272 0.0 0.0 0.00 0.00 0.00 91 1016.9
20260902051005 75 272 0.0 1.0 0.00 0.00 0.00 91 1016.9
20260902050504 75 270 0.0 1.0 0.00 0.00 0.00 92 1016.9
20260902050007 76 277 0.0 0.0 0.00 0.00 0.00 91 1016.8
20260902045504 76 277 0.0 0.0 0.00 0.00 0.00 91 1016.8
20260902045003 76 277 0.0 0.0 0.00 0.00 0.00 91 1016.8
20260902044503 76 291 0.0 1.0 0.00 0.00 0.00 91 1016.7
20260902044003 76 39 0.0 0.0 0.00 0.00 0.00 90 1016.7
20260902043504 76 39 0.0 0.0 0.00 0.00 0.00 90 1016.7
20260902043004 76 153 0.0 0.0 0.00 0.00 0.00 90 1016.7
20260902042504 76 153 0.0 0.0 0.00 0.00 0.00 90 1016.6
20260902042005 76 153 0.0 0.0 0.00 0.00 0.00 89 1016.6
20260902041505 76 153 0.0 1.0 0.00 0.00 0.00 89 1016.5
20260902041004 76 280 0.0 1.0 0.00 0.00 0.00 89 1016.6
20260902040506 76 294 0.0 0.0 0.00 0.00 0.00 88 1016.6
20260902040004 77 294 0.0 1.0 0.00 0.00 0.00 88 1016.6
20260902035504 77 178 0.0 0.0 0.00 0.00 0.00 88 1016.5
20260902035004 77 178 0.0 0.0 0.00 0.00 0.00 88 1016.5
20260902034504 77 178 0.0 0.0 0.00 0.00 0.00 88 1016.5
20260902034004 77 178 0.0 0.0 0.00 0.00 0.00 88 1016.6
20260902033504 77 178 0.0 0.0 0.00 0.00 0.00 88 1016.6
20260902032505 77 178 0.0 0.0 0.00 0.00 0.00 88 1016.5
20260902032004 77 178 0.0 0.0 0.00 0.00 0.00 87 1016.5
20260902031504 78 178 0.0 0.0 0.00 0.00 0.00 86 1016.5
20260902031003 78 178 0.0 0.0 0.00 0.00 0.00 86 1016.5
20260902030504 78 178 0.0 1.0 0.00 0.00 0.00 86 1016.5
20260902030004 78 344 0.0 0.0 0.00 0.00 0.00 87 1016.5
20260902025503 78 87 0.0 0.0 0.00 0.00 0.00 86 1016.5
20260902025004 78 106 0.0 0.0 0.00 0.00 0.00 88 1016.5
20260902024502 78 190 0.0 1.0 0.00 0.00 0.00 88 1016.5
20260902023504 78 339 0.0 1.0 0.00 0.00 0.00 87 1016.4
20260902023004 78 194 0.0 1.0 0.00 0.00 0.00 87 1016.4
20260902022004 78 324 1.0 1.0 0.00 0.00 0.00 87 1016.4
20260902021504 78 325 0.0 0.0 0.00 0.00 0.00 87 1016.3
20260902021003 78 325 0.0 0.0 0.00 0.00 0.00 87 1016.3
20260902020503 78 325 0.0 0.0 0.00 0.00 0.00 87 1016.3
20260902020003 78 325 0.0 0.0 0.00 0.00 0.00 87 1016.2
20260902015504 78 325 0.0 1.0 0.00 0.00 0.00 88 1016.1
20260902015003 79 271 0.0 0.0 0.00 0.00 0.00 88 1016.1
20260902014503 79 271 0.0 0.0 0.00 0.00 0.00 88 1016.0
20260902014004 79 271 0.0 0.0 0.00 0.00 0.00 88 1016.0
20260902013003 79 271 0.0 0.0 0.00 0.00 0.00 89 1015.9
20260902012505 79 272 0.0 0.0 0.00 0.00 0.00 88 1015.9
20260902012004 80 274 0.0 0.0 0.00 0.00 0.00 88 1015.8
20260902011503 80 322 0.0 0.0 0.00 0.00 0.00 88 1015.8
20260902011004 80 219 0.0 1.0 0.00 0.00 0.00 87 1015.7
20260902010503 80 268 0.0 0.0 0.00 0.00 0.00 87 1015.6
20260902010005 80 268 0.0 0.0 0.00 0.00 0.00 87 1015.6
20260902005503 80 299 0.0 0.0 0.00 0.00 0.00 87 1015.5
20260902005003 81 351 0.0 1.0 0.00 0.00 0.00 87 1015.4
20260902004503 81 203 0.0 1.0 0.00 0.00 0.00 86 1015.5
20260902004004 81 258 0.0 1.0 0.00 0.00 0.00 86 1015.5
20260902003502 81 244 0.0 0.0 0.00 0.00 0.00 86 1015.5
20260902003004 82 192 0.0 1.0 0.00 0.00 0.00 86 1015.4
20260902002505 82 235 0.0 1.0 0.00 0.00 0.00 85 1015.5
20260902002003 82 323 0.0 1.0 0.00 0.00 0.00 85 1015.4
20260902001502 82 269 0.0 1.0 0.00 0.00 0.00 85 1015.5
20260902001005 83 278 0.0 1.0 0.00 0.00 0.00 84 1015.5
20260902000504 83 330 0.0 1.0 0.00 0.00 0.00 84 1015.6
20260902000003 83 298 0.0 1.0 0.00 0.00 0.00 83 1015.5
20260901235503 84 186 0.0 1.0 0.00 0.00 0.00 82 1015.6